Kakushu Maru — JG5688 — position and weather

sailwx.info

Track history (hours):
 
Tides and Currents Weather Stations Pressure Air Temp Water Temp Dewpoint Dewpoint Depression Visibility Wind Speed Wind Dir Waves Ship Positions

Kakushu Maru

Last reported at 2014-Jul-31 13:33 UTC. Time now 2014-Jul-31 13:37 UTC.
Position N 34°15' E 134°58'.

Length 105 m; draft 4.8 m.

Type: Tanker. MMSI: 431101016.

Date/timePositionNaut miles runAvg speedWind from/ knotsBaromVisibWave heightAir tempDewpointWater temp
2014-Jul-31 13:33N 34°15' E 134°58'1211.7
2014-Jul-31 12:33N 34°25' E 135°06'1413.8
2014-Jul-31 11:33N 34°32' E 135°20'3 0.4
2014-Jul-31 02:33N 34°32' E 135°24'4 3.3
2014-Jul-31 01:14N 34°32' E 135°19'0 0.0
2014-Jul-31 00:26N 34°32' E 135°19'0 0.0
2014-Jul-30 23:26N 34°32' E 135°19'0 0.0
2014-Jul-30 22:26N 34°32' E 135°19'0 0.0
2014-Jul-30 21:26N 34°32' E 135°19'0 0.1
2014-Jul-30 20:32N 34°32' E 135°19'0 0.0
2014-Jul-30 19:32N 34°32' E 135°19'0 0.0
2014-Jul-30 18:32N 34°32' E 135°19'0 0.0
2014-Jul-30 17:32N 34°32' E 135°19'0 0.0
2014-Jul-30 16:32N 34°32' E 135°19'0 0.0
2014-Jul-30 15:32N 34°32' E 135°19'0 0.1
2014-Jul-30 14:20N 34°32' E 135°19'7 9.0
2014-Jul-30 13:33N 34°34' E 135°11'1110.8
2014-Jul-30 12:33N 34°36' E 134°58'  
2014-Jul-23 19:15N 34°02' E 132°46'2513.3
2014-Jul-23 17:20N 33°45' E 132°23'10311.7
2014-Jul-23 08:33N 33°49' E 130°19'1010.5
2014-Jul-23 07:33N 33°39' E 130°20'4 3.6
2014-Jul-23 06:34N 33°36' E 130°23'0 0.0
2014-Jul-23 05:33N 33°36' E 130°23'0 0.0
2014-Jul-23 04:27N 33°36' E 130°23'0 0.0
2014-Jul-23 03:33N 33°36' E 130°23'0 0.0
2014-Jul-23 02:33N 33°36' E 130°23'0 0.0
2014-Jul-23 01:33N 33°36' E 130°23'3 3.1
2014-Jul-23 00:30N 33°38' E 130°20'0 0.0
2014-Jul-22 23:33N 33°38' E 130°20'0 0.1
2014-Jul-22 22:33N 33°38' E 130°20'8 8.5
2014-Jul-22 21:33N 33°46' E 130°17'  
Track history (hours):
 
Tides and Currents Weather Stations Pressure Air Temp Water Temp Dewpoint Dewpoint Depression Visibility Wind Speed Wind Dir Waves Ship Positions

Kakushu Maru

Last reported at 2014-Jul-31 13:33 UTC. Time now 2014-Jul-31 13:37 UTC.
Position N 34°15' E 134°58'.

Length 105 m; draft 4.8 m.

Type: Tanker. MMSI: 431101016.

Date/timePositionNaut miles runAvg speedWind from/ knotsBaromVisibWave heightAir tempDewpointWater temp
2014-Jul-31 13:33N 34°15' E 134°58'1211.7
2014-Jul-31 12:33N 34°25' E 135°06'1413.8
2014-Jul-31 11:33N 34°32' E 135°20'3 0.4
2014-Jul-31 02:33N 34°32' E 135°24'4 3.3
2014-Jul-31 01:14N 34°32' E 135°19'0 0.0
2014-Jul-31 00:26N 34°32' E 135°19'0 0.0
2014-Jul-30 23:26N 34°32' E 135°19'0 0.0
2014-Jul-30 22:26N 34°32' E 135°19'0 0.0
2014-Jul-30 21:26N 34°32' E 135°19'0 0.1
2014-Jul-30 20:32N 34°32' E 135°19'0 0.0
2014-Jul-30 19:32N 34°32' E 135°19'0 0.0
2014-Jul-30 18:32N 34°32' E 135°19'0 0.0
2014-Jul-30 17:32N 34°32' E 135°19'0 0.0
2014-Jul-30 16:32N 34°32' E 135°19'0 0.0
2014-Jul-30 15:32N 34°32' E 135°19'0 0.1
2014-Jul-30 14:20N 34°32' E 135°19'7 9.0
2014-Jul-30 13:33N 34°34' E 135°11'1110.8
2014-Jul-30 12:33N 34°36' E 134°58'  
2014-Jul-23 19:15N 34°02' E 132°46'2513.3
2014-Jul-23 17:20N 33°45' E 132°23'10311.7
2014-Jul-23 08:33N 33°49' E 130°19'1010.5
2014-Jul-23 07:33N 33°39' E 130°20'4 3.6
2014-Jul-23 06:34N 33°36' E 130°23'0 0.0
2014-Jul-23 05:33N 33°36' E 130°23'0 0.0
2014-Jul-23 04:27N 33°36' E 130°23'0 0.0
2014-Jul-23 03:33N 33°36' E 130°23'0 0.0
2014-Jul-23 02:33N 33°36' E 130°23'0 0.0
2014-Jul-23 01:33N 33°36' E 130°23'3 3.1
2014-Jul-23 00:30N 33°38' E 130°20'0 0.0
2014-Jul-22 23:33N 33°38' E 130°20'0 0.1
2014-Jul-22 22:33N 33°38' E 130°20'8 8.5
2014-Jul-22 21:33N 33°46' E 130°17'  

Dump ship's entire track history